Location: Newark
(45.8572°N, 3.5483°E)
Time: 00:31:22
(UTC+00:00)

ISS - Visible Passes

Search period start: 25 February 2020 00:00
Search period end: 06 March 2020 00:00
Orbit: 415 x 423 km, 51.6° (Epoch: 25 February)

Date Brightness Start Highest point End Pass type
(mag) Time Alt. Az. Time Alt. Az. Time Alt. Az.
25 Feb -3.0 04:57:24 28° SSW 04:58:46 48° SE 05:02:03 10° ENE visible
26 Feb -1.9 04:11:55 28° ESE 04:11:55 28° ESE 04:14:16 10° ENE visible
26 Feb -3.4 05:44:53 12° W 05:47:56 53° NNW 05:51:16 10° ENE visible
27 Feb -3.8 04:59:18 43° W 05:00:14 74° NNW 05:03:37 10° ENE visible
28 Feb -2.5 04:13:37 41° ENE 04:13:37 41° ENE 04:15:58 10° ENE visible
28 Feb -2.7 05:46:34 11° WNW 05:49:37 34° N 05:52:45 10° NE visible
29 Feb -0.4 03:27:51 13° ENE 03:27:51 13° ENE 03:28:14 10° ENE visible
29 Feb -3.0 05:00:48 31° WNW 05:01:50 41° NNW 05:05:04 10° NE visible
01 Mar -2.5 04:15:00 38° NNE 04:15:00 38° NNE 04:17:24 10° ENE visible
01 Mar -2.4 05:48:18 10° WNW 05:51:19 29° N 05:54:21 10° ENE visible
02 Mar -0.5 03:29:08 14° ENE 03:29:08 14° ENE 03:29:43 10° ENE visible
02 Mar -2.5 05:02:05 22° NW 05:03:29 30° N 05:06:32 10° ENE visible
03 Mar -2.3 04:16:11 32° N 04:16:11 32° N 04:18:47 10° NE visible
03 Mar -2.4 05:49:56 10° WNW 05:53:01 32° N 05:56:06 10° ENE visible
04 Mar -0.7 03:30:17 16° NE 03:30:17 16° NE 03:31:04 10° NE visible
04 Mar -2.3 05:03:13 17° NW 05:05:10 29° N 05:08:11 10° ENE visible
05 Mar -2.3 04:17:18 29° N 04:17:18 29° N 04:20:18 10° ENE visible
